Regional Weather Roundup
Issued by NWS Sioux Falls, SD

Home | Current Version | Previous Version | Text Only | Print | Product List | Glossary On
Versions: 1 2 3 4 5 6 7 8 9 10 11 12 13 14 15 16 17 18 19 20 21 22 23 24 25 26 27 28 29 30 31 32 33 34 35 36 37 38 39 40 41 42 43 44 45 46 47 48 49 50
000
ASUS43 KFSD 260410
RWRFSD

WEATHER ROUNDUP FOR SE SOUTH DAKOTA/SW MINNESOTA/NW IOWA
NATIONAL WEATHER SERVICE SIOUX FALLS SD
1100 PM CDT SAT APR 25 2015

NOTE: "FAIR" INDICATES FEW OR NO CLOUDS BELOW 12,000 FEET WITH NO
SIGNIFICANT WEATHER AND OR OBSTRUCTIONS TO VISIBILITY.


SDZ038>040-050-052>070-260500-
SOUTHEAST SOUTH DAKOTA

CITY           SKY/WX    TMP DP  RH WIND       PRES   REMARKS
BROOKINGS      MOCLDY    46  39  76 SE7       29.95R
CHAMBERLAIN    CLOUDY    54  43  67 E8        29.89R
HURON          CLOUDY    53  43  68 E8        29.92R
MADISON        FAIR      45  45 100 E9        29.93R
MITCHELL       CLOUDY    54  44  69 E12       29.93R
SIOUX FALLS    MOCLDY    50  39  66 E9        29.93R
WINNER         CLOUDY    54  45  71 E9        29.87S
YANKTON        CLOUDY    54  39  58 E12G18    29.91R
$$

MNZ071-072-080-081-089-090-097-098-260500-
SOUTHWEST MINNESOTA

CITY           SKY/WX    TMP DP  RH WIND       PRES   REMARKS
FAIRMONT       PTCLDY    39  34  81 CALM      29.93S
JACKSON        PTCLDY    43  36  75 CALM      29.95R
LUVERNE        MOCLDY    46  37  71 E5        29.94R
MARSHALL       PTCLDY    46  36  66 CALM      29.95R
MONTEVIDEO     CLEAR     41  36  81 S6        29.97R
REDWOOD FALLS  PTCLDY    47  36  65 SW5       29.95R
TRACY          PTCLDY    46  37  70 S5        29.95R
WINDOM         PTCLDY    39  34  81 CALM      29.95R
WORTHINGTON    PTCLDY    43  34  70 E3        29.95R
$$

IAZ001>003-012>014-020>022-031-032-NEZ013-014-SDZ071-260500-
NORTHWEST IOWA

CITY           SKY/WX    TMP DP  RH WIND       PRES   REMARKS
CHEROKEE       CLOUDY    50  40  69 E7        29.92R
DENISON        CLOUDY    48  45  87 NE9       29.88S
ESTHERVILLE    PTCLDY    38  35  89 NE6       29.93R
LE MARS        CLOUDY    52  43  71 E7        29.92S
ORANGE CITY    CLOUDY    48  41  76 E7        29.92S
SHELDON        MOCLDY    46  39  76 E8        29.92R
SIOUX CITY     CLOUDY    54  40  59 E13       29.91R
SPENCER        MOCLDY    48  38  68 E8        29.93R
STORM LAKE     CLOUDY    48  39  71 E12       29.92S
$$

ABBREVIATIONS USED IN REMARKS
   TC - TEMPERATURE IN CELSIUS
  WCI - WIND CHILL INDEX
   HX - HEAT INDEX
  VSB - VISIBILITY




USA.gov is the U.S. government's official web portal to all federal, state and local government web resources and services.